Bookmark and Share
Track history (hours):
 

Shelby

More information available from US FCC via Universal Licensing System and Coast Guard Vessel Documentation Center.

Last reported at 2014-Apr-19 09:18 UTC. Time now 2014-Apr-19 12:14 UTC.
Position N 40°46' W 074°00'.

Length 22 m; draft 3.1 m.

Type: Tug. MMSI: 366939080.

NotesDate/timePositionNaut miles runAvg speedWind from/ knotsBaromVisibWave heightAir tempDewpointWater temp
2014-Apr-19 09:18N 40°46' W 074°00'0 0.0
2014-Apr-19 00:06N 40°46' W 073°60'0 0.4
2014-Apr-18 23:22N 40°46' W 074°00'0 0.0
2014-Apr-18 19:19N 40°46' W 074°00'0 0.0
2014-Apr-18 13:33N 40°46' W 073°60'0 0.0
2014-Apr-18 00:05N 40°46' W 074°00'0 0.0
2014-Apr-17 09:33N 40°46' W 074°00'0 0.1
2014-Apr-17 08:20N 40°46' W 074°00'0 0.1
2014-Apr-17 07:11N 40°46' W 074°00'1 2.2
2014-Apr-17 06:31N 40°45' W 074°01'5 4.9
2014-Apr-17 05:32N 40°41' W 074°05'0 0.1
2014-Apr-17 04:33N 40°41' W 074°05'1 0.7
2014-Apr-17 03:33N 40°40' W 074°04'17 5.3
2014-Apr-17 00:27N 40°56' W 073°55'8 2.7
2014-Apr-16 21:25N 41°04' W 073°53'21 7.4
2014-Apr-16 18:33N 40°43' W 074°01'4 3.6
2014-Apr-16 17:34N 40°41' W 074°05'0 0.0
2014-Apr-16 16:34N 40°41' W 074°05'0 0.0
2014-Apr-16 15:34N 40°41' W 074°05'2 2.5
2014-Apr-16 14:33N 40°39' W 074°07'0 0.1
2014-Apr-16 11:23N 40°39' W 074°07'2 1.9
2014-Apr-16 10:15N 40°41' W 074°05'0 0.0
2014-Apr-16 09:15N 40°41' W 074°05'0 0.0
2014-Apr-16 08:33N 40°41' W 074°05'0 0.0
2014-Apr-16 07:33N 40°41' W 074°05'0 0.0
2014-Apr-16 06:33N 40°41' W 074°05'0 0.0
2014-Apr-16 05:33N 40°41' W 074°05'0 0.0
2014-Apr-16 04:27N 40°41' W 074°05'0 0.0
2014-Apr-16 03:33N 40°41' W 074°05'0 0.0
2014-Apr-16 02:33N 40°41' W 074°05'0 0.0
2014-Apr-16 01:27N 40°41' W 074°05'0 0.4
2014-Apr-16 00:33N 40°40' W 074°04'11 8.4
2014-Apr-15 23:12N 40°33' W 074°15'11 0.2
2014-Apr-13 22:30N 40°41' W 074°05'0 0.0
2014-Apr-13 21:33N 40°41' W 074°05'0 0.0
2014-Apr-13 20:30N 40°41' W 074°05'0 0.0
2014-Apr-13 19:33N 40°41' W 074°05'0 0.0
2014-Apr-13 18:33N 40°41' W 074°05'0 0.0
2014-Apr-13 17:33N 40°41' W 074°05'0 0.0
2014-Apr-13 16:33N 40°41' W 074°05'0 0.1
2014-Apr-13 15:33N 40°40' W 074°05'0 0.1
2014-Apr-13 14:29N 40°41' W 074°05'0 0.0
2014-Apr-13 13:33N 40°41' W 074°05'0 0.0
2014-Apr-13 12:29N 40°41' W 074°05'0 0.0
2014-Apr-13 11:30N 40°41' W 074°05'0 0.0
2014-Apr-13 10:30N 40°41' W 074°05'0 0.0
2014-Apr-13 09:32N 40°41' W 074°05'0 0.0
2014-Apr-13 08:32N 40°41' W 074°05'0 0.0
2014-Apr-13 07:32N 40°41' W 074°05'0 0.0
2014-Apr-13 06:32N 40°41' W 074°05'0 0.1
2014-Apr-13 05:33N 40°41' W 074°05'1 1.5
2014-Apr-13 04:33N 40°40' W 074°03'8 7.6
2014-Apr-13 03:33N 40°46' W 073°57'7 6.9
2014-Apr-13 02:33N 40°48' W 073°48'18 2.2
2014-Apr-12 18:06N 40°59' W 073°29'4 8.1
2014-Apr-12 17:33N 40°60' W 073°23'8 8.3
2014-Apr-12 16:33N 41°01' W 073°12'8 8.2
2014-Apr-12 15:33N 41°02' W 073°02'9 8.6
2014-Apr-12 14:34N 41°05' W 072°51'9 8.7
2014-Apr-12 13:34N 41°07' W 072°40'9 9.2
2014-Apr-12 12:33N 41°10' W 072°28'10 9.9
2014-Apr-12 11:34N 41°12' W 072°15'10 9.8
2014-Apr-12 10:34N 41°14' W 072°02'10 9.7
2014-Apr-12 09:34N 41°16' W 071°50'9 8.5
2014-Apr-12 08:34N 41°17' W 071°38'9 8.2
2014-Apr-12 07:31N 41°18' W 071°27'8 8.5
2014-Apr-12 06:34N 41°21' W 071°17'9 8.8
2014-Apr-12 05:34N 41°24' W 071°06'  
2014-Apr-09 21:33N 41°23' W 071°09'5 4.6
2014-Apr-09 20:33N 41°21' W 071°15'5 4.7
2014-Apr-09 19:33N 41°19' W 071°21'5 4.8
2014-Apr-09 18:33N 41°18' W 071°27'5 5.1
2014-Apr-09 17:33N 41°18' W 071°34'5 5.1
2014-Apr-09 16:34N 41°17' W 071°41'6 5.8
2014-Apr-09 15:33N 41°16' W 071°48'6 5.7
2014-Apr-09 14:33N 41°15' W 071°56'6 5.9
2014-Apr-09 13:33N 41°14' W 072°03'6 5.7
2014-Apr-09 12:33N 41°13' W 072°11'5 5.4
2014-Apr-09 11:33N 41°12' W 072°18'5 4.5
2014-Apr-09 10:33N 41°10' W 072°23'4 3.7
2014-Apr-09 09:33N 41°09' W 072°28'  

Dump ship's entire track history

sailing weather and tide predictions

Shelby — WCV6157 — position and weather